Location: Buchdorf
(48.7842°N, 10.8275°E)
Time: 11:54:28
(UTC+00:00)

X-37B - Pass Details

Date: 14 March 2021
Orbit: 380 x 394 km, 45.0° (Epoch: 07 April)

Event Time Altitude Azimuth Distance (km) Brightness Sun altitude
Rises 17:57:22 0° 223° (SW) 2,261 5.1 -6.9°
Reaches altitude 10° 17:59:46 10° 206° (SSW) 1,413 3.7 -7.3°
Maximum altitude 18:02:10 20° 156° (SSE) 971 2.3 -7.7°
Enters shadow 18:04:29 11° 108° (ESE) 1,388 2.7 -8.0°
